Theta_e
313 313 313 313 315 317 319 321 325 328 328 329 329 332 335 337 336 335 335 334 333 330 327 328 330 332 332 332 331 331 331 332 332 332 331 330 330 329 328 326 324 323 322 322 321 319 318 317 316 314 312 312 311 317 326 329 332 337 338 338 338 341 342 342 342 339 335 332 330 334 338 340 342 342 342 341 340 339 339 340 340 340 339 340 340
313 314 313 312 315 317 319 320 324 327 328 329 329 331 333 335 335 335 334 334 334 332 331 331 333 334 334 333 332 331 331 331 332 332 332 331 331 330 329 328 327 325 323 322 321 321 319 318 318 316 313 311 311 314 324 329 330 334 337 338 338 340 342 341 341 338 333 331 328 333 338 338 340 341 342 341 341 340 340 341 340 340 339 340 340
312 316 315 313 314 317 318 320 322 326 328 329 330 331 332 333 333 334 334 334 334 334 334 336 337 337 337 336 334 333 332 331 331 331 332 331 331 330 330 328 327 326 324 321 320 321 321 319 319 318 315 312 311 311 320 329 331 334 335 337 338 340 342 342 341 335 330 330 328 331 337 336 337 340 341 341 341 341 340 340 340 339 340 340 339
312 318 320 316 314 317 318 319 321 324 327 328 330 331 332 332 333 333 333 333 334 335 335 337 338 338 337 337 337 336 335 333 331 331 331 331 331 331 331 330 327 325 324 322 320 319 319 320 319 319 316 313 311 310 316 327 332 334 335 336 338 340 341 342 341 335 328 328 326 329 336 332 331 337 340 341 341 340 340 340 339 339 340 339 338
313 319 324 322 315 315 318 319 321 322 323 324 326 330 331 332 333 333 333 333 334 334 334 336 337 337 337 337 337 337 336 335 333 332 330 330 331 331 332 332 330 326 323 322 321 319 318 318 318 316 316 313 311 310 312 323 331 333 335 336 338 340 341 341 340 335 328 326 324 325 332 329 326 334 338 340 339 339 339 339 339 339 340 339 339
315 319 323 327 319 314 317 317 320 321 322 322 321 323 327 330 332 333 333 333 333 333 332 334 335 336 336 336 336 336 336 335 335 333 332 331 330 330 331 332 331 329 325 322 323 321 318 317 316 314 313 312 311 310 309 317 328 333 335 337 338 339 340 341 340 337 331 326 322 323 327 327 325 331 336 338 339 338 339 339 338 339 339 339 339
315 318 324 332 327 317 315 315 317 320 322 323 322 321 321 323 326 330 332 332 333 334 333 335 336 335 335 335 335 336 335 335 335 334 333 333 332 331 330 330 330 331 328 326 326 325 321 317 315 314 312 311 311 310 309 313 324 332 334 337 338 338 339 340 340 337 332 325 320 322 326 325 324 330 335 336 338 338 339 338 337 338 338 338 339
313 317 323 332 330 319 314 314 313 316 319 323 326 326 323 321 321 324 327 329 331 333 333 335 335 335 334 333 334 335 335 334 334 334 334 334 333 332 331 330 329 330 331 330 328 326 324 319 314 312 311 311 311 310 309 311 319 329 333 336 337 339 339 340 340 335 329 322 319 324 327 324 323 327 334 335 336 338 338 338 337 337 338 338 339
312 315 319 322 320 314 313 313 312 313 315 319 324 326 326 324 324 324 323 324 326 328 331 333 334 333 332 331 332 333 334 333 334 334 334 333 333 332 331 330 329 329 331 334 332 328 327 325 322 317 312 310 310 310 309 310 316 325 332 334 336 339 339 340 339 334 328 320 319 327 327 325 324 325 332 335 334 337 338 337 336 336 338 338 338
313 314 315 314 313 312 312 312 312 312 314 316 319 322 324 324 325 325 325 324 325 327 330 331 333 334 332 330 330 331 332 333 332 333 333 333 333 332 332 330 328 329 330 334 335 332 330 332 333 331 325 317 310 310 309 311 317 323 331 334 336 339 339 339 338 335 329 320 323 329 327 326 327 325 329 334 334 336 338 335 333 334 337 337 337
314 314 314 314 314 313 313 312 312 312 313 313 315 319 322 323 324 325 325 325 327 328 329 330 332 333 332 332 333 332 332 332 332 332 333 333 333 332 331 329 327 329 329 331 333 333 333 334 334 335 336 330 318 312 309 313 320 324 330 334 336 338 338 339 338 336 329 322 328 331 327 329 330 328 328 332 334 334 336 334 332 332 334 335 337
315 314 314 314 314 314 314 314 313 313 312 313 314 316 319 323 325 326 326 326 327 328 329 329 330 331 330 331 332 332 332 333 332 333 333 333 333 332 331 330 329 330 330 329 329 330 332 333 333 334 335 336 330 320 311 314 325 327 328 332 335 338 338 339 339 337 331 325 330 330 327 329 331 331 328 331 334 333 333 332 330 332 332 331 334
314 315 315 315 315 315 315 315 315 314 313 313 313 314 316 321 325 328 328 327 327 327 328 328 329 330 331 331 330 330 331 332 332 332 333 333 332 332 332 331 330 330 330 330 329 329 329 330 332 332 332 335 335 329 317 314 326 331 329 329 333 337 338 339 338 337 332 327 330 329 326 326 330 332 330 331 332 332 333 331 329 330 331 330 331
313 313 314 313 314 314 314 314 315 315 315 314 314 314 314 317 321 326 328 328 326 325 325 327 329 329 330 331 331 330 330 330 331 330 330 332 332 332 331 331 331 330 329 330 330 329 328 328 328 328 329 332 334 334 327 317 322 333 332 330 331 335 338 338 338 335 330 326 329 328 324 322 326 331 330 333 333 332 334 331 327 328 330 329 330
310 310 310 310 310 311 312 312 313 313 314 315 315 315 315 315 316 319 324 327 327 325 324 325 327 327 327 328 328 329 328 329 330 330 330 330 331 331 331 330 330 329 328 329 330 330 327 326 326 326 328 329 332 334 334 326 321 331 334 332 330 334 337 338 337 333 327 326 327 326 323 321 324 329 331 333 333 332 334 332 327 327 329 329 331
308 307 308 308 308 308 309 310 310 311 312 313 314 315 315 316 316 316 317 320 323 324 325 324 325 326 327 326 326 326 325 326 328 330 330 330 330 331 330 329 329 328 328 328 329 330 328 325 324 325 328 327 329 331 334 333 325 326 333 334 331 333 337 338 337 333 328 326 326 324 323 320 322 327 330 333 333 333 334 332 330 330 330 330 331
307 306 306 307 307 307 308 308 308 309 310 311 312 313 314 315 316 316 316 316 317 319 321 322 322 323 326 326 326 325 323 323 325 326 325 325 329 331 330 329 329 329 328 328 329 330 329 327 324 325 327 326 327 329 331 334 331 324 327 333 332 332 335 338 336 334 330 325 324 324 322 320 322 325 328 331 333 334 334 332 333 332 331 332 332
305 304 304 305 305 306 306 306 306 307 308 309 310 311 312 312 313 314 315 316 316 316 316 317 316 318 321 324 325 325 324 324 323 322 319 320 323 327 330 330 329 329 328 328 328 329 330 329 326 325 327 326 325 327 329 332 334 329 324 327 331 333 335 337 337 333 329 325 324 323 321 320 322 325 326 329 333 334 334 333 333 333 333 333 333
304 304 303 304 304 304 304 304 305 305 305 306 307 309 310 311 311 312 313 315 317 318 317 317 316 316 318 320 322 323 324 325 325 323 319 318 317 320 327 331 330 329 328 328 328 329 329 329 328 327 326 326 325 326 329 331 334 333 327 323 326 333 335 336 336 331 327 325 324 322 320 320 323 326 325 327 331 334 335 334 334 333 334 334 333
304 304 304 303 303 304 304 304 304 304 303 304 305 306 307 308 309 310 312 315 317 320 321 321 320 319 318 318 319 319 320 322 323 323 321 318 317 319 326 330 329 329 328 327 328 328 328 328 328 328 326 326 326 325 326 330 333 334 332 326 323 330 335 336 334 330 326 325 323 321 321 321 324 325 325 325 328 333 335 334 334 334 334 335 333
304 304 304 303 304 304 304 304 304 304 303 303 304 304 304 305 306 307 309 311 315 319 322 323 323 322 321 321 320 319 319 319 320 321 321 319 318 319 326 330 327 327 328 327 327 328 327 327 328 328 328 326 327 326 324 328 333 333 333 332 327 329 335 336 334 330 327 325 322 322 322 323 324 323 322 322 325 333 335 333 334 334 333 335 334
302 303 303 303 303 303 304 304 304 304 304 304 304 304 303 303 304 304 305 306 309 313 317 321 323 324 323 324 323 322 320 320 319 318 319 320 319 318 323 329 328 327 327 326 326 327 327 327 327 327 327 326 326 326 325 328 331 332 332 333 332 332 335 335 333 331 328 326 324 323 324 325 324 319 318 319 324 332 334 332 333 335 334 334 335
300 301 301 301 301 301 301 302 302 302 303 304 304 304 304 303 303 303 304 304 304 305 308 313 318 322 323 324 325 325 324 323 321 319 318 320 321 319 320 326 328 327 326 326 326 327 327 327 328 327 326 326 326 325 325 327 329 332 332 331 331 331 334 334 332 333 331 328 325 326 326 323 320 317 319 321 326 332 333 333 334 335 335 334 335
299 299 299 299 299 299 299 299 300 300 301 301 302 303 303 303 303 303 303 303 303 303 303 305 309 315 320 322 323 325 326 326 325 323 321 320 321 322 321 324 326 327 327 326 326 327 327 327 327 327 326 326 326 325 325 327 328 331 332 330 329 327 332 335 333 333 333 331 328 328 326 319 318 321 326 328 329 333 334 333 334 334 335 334 334
297 298 298 298 298 298 298 298 297 297 298 298 299 299 300 301 302 302 303 302 302 302 302 302 304 307 311 317 321 323 324 325 326 326 325 323 322 322 323 324 325 326 326 327 327 327 327 327 327 327 327 326 326 325 325 326 328 331 332 330 327 324 329 334 334 334 333 333 330 328 326 318 319 325 330 333 332 333 333 333 334 335 335 335 334
297 297 296 296 296 296 296 296 296 296 296 296 296 296 296 297 298 299 300 300 300 300 301 301 302 302 304 307 312 318 321 323 324 325 326 326 325 324 323 323 324 324 325 327 327 327 327 327 327 327 327 326 326 325 324 325 327 331 333 330 325 322 328 334 335 333 333 333 331 329 326 319 320 327 331 333 333 333 333 333 335 335 335 335 334
296 296 296 296 296 296 296 295 295 295 295 295 295 295 295 295 295 295 296 297 298 298 298 299 299 301 301 301 304 309 314 318 321 322 324 326 326 326 325 323 322 324 325 327 328 328 328 327 326 327 327 327 326 325 324 325 328 331 332 330 326 323 327 334 334 332 331 331 330 326 323 321 323 328 330 332 333 334 334 334 335 335 335 335 334
296 295 295 296 296 295 295 295 295 295 295 295 295 295 295 295 295 295 295 295 295 296 296 296 297 298 299 299 302 306 308 311 315 318 321 323 324 326 327 326 324 324 325 326 327 328 328 327 327 327 327 327 325 324 324 328 330 331 331 330 327 324 326 332 333 330 330 330 327 322 321 324 326 328 329 331 334 335 335 336 336 335 335 335 334
295 295 295 295 295 295 295 294 294 295 295 295 295 295 295 295 295 295 295 295 295 295 295 295 296 297 298 299 302 307 309 309 310 313 315 318 321 323 324 326 326 325 325 326 326 328 329 328 327 328 327 326 325 324 324 328 331 330 330 329 329 329 328 331 332 330 330 329 326 321 321 324 323 326 329 331 334 335 335 335 335 335 334 334 333
295 295 295 295 295 295 295 294 295 295 295 295 295 295 295 295 295 295 295 295 295 295 295 294 295 295 296 298 300 304 307 308 310 312 313 314 317 320 322 323 326 327 326 326 327 327 327 327 327 328 327 326 324 324 323 325 328 329 330 330 332 332 331 332 332 330 329 328 325 322 321 321 322 327 330 332 334 334 334 335 335 335 334 334 333
295 294 294 294 295 294 294 295 295 295 294 295 295 295 295 295 295 295 295 295 295 295 295 295 295 294 294 296 297 298 300 303 307 310 312 313 314 318 321 322 324 326 327 328 328 327 327 327 327 328 327 326 324 323 323 324 328 330 330 332 333 332 332 332 330 328 327 325 325 324 323 324 326 329 330 331 333 333 333 335 335 334 334 334 334
294 294 294 294 294 294 294 294 294 294 294 294 295 295 295 295 295 295 295 295 295 295 295 295 295 295 294 294 295 295 296 297 300 304 307 311 314 316 318 321 322 323 326 328 327 327 328 328 328 328 327 325 324 323 323 325 328 330 330 331 332 331 330 330 329 327 325 325 325 324 324 327 329 329 329 329 331 332 333 334 334 334 334 334 333
294 294 294 294 294 294 294 294 294 294 294 294 294 294 294 294 295 294 294 294 295 295 295 295 295 295 294 294 294 294 295 295 296 298 301 306 311 315 316 317 319 321 323 326 327 327 327 328 328 328 326 324 323 323 323 326 329 330 330 331 330 330 329 329 329 327 325 325 325 324 324 328 328 327 328 328 331 332 332 333 334 333 333 333 333
293 293 294 294 293 293 294 294 294 294 294 294 294 294 294 294 294 294 294 294 294 295 295 295 295 295 295 295 294 293 294 294 295 295 297 300 305 311 313 314 316 318 321 323 325 327 326 327 328 328 325 323 323 323 325 328 330 330 330 331 329 329 328 328 328 327 325 325 325 325 326 329 328 325 327 329 331 332 332 333 334 333 333 333 332
293 293 293 293 293 293 294 294 293 293 293 294 294 294 294 294 294 294 294 294 294 294 294 295 295 295 295 295 294 294 293 294 294 295 295 297 301 306 311 312 313 316 320 321 323 325 326 326 327 327 324 323 324 325 327 329 330 330 329 329 328 327 328 328 327 327 326 325 326 328 328 328 327 325 326 328 330 332 332 333 334 333 333 333 332
293 293 293 293 293 293 293 293 293 293 293 293 293 293 294 294 293 293 293 293 293 294 294 294 295 295 295 295 295 294 294 294 294 295 295 296 298 303 307 311 312 314 317 320 322 324 325 326 327 326 324 324 325 326 328 329 329 329 327 326 327 327 327 327 327 327 328 327 327 329 328 326 326 327 327 327 329 332 333 333 333 332 332 332 331
293 293 293 293 293 293 293 293 293 293 293 293 293 293 293 293 293 292 293 293 293 293 293 293 294 294 295 295 294 294 294 295 295 294 295 295 297 300 304 308 311 313 314 316 320 323 324 325 326 324 323 323 324 326 328 328 328 328 326 326 326 325 325 326 327 326 327 328 326 326 326 323 322 325 326 327 328 329 332 333 332 331 331 330 329
293 293 293 293 293 293 293 293 293 293 293 293 293 293 293 292 292 292 292 292 292 292 292 292 293 293 294 294 294 294 294 295 296 295 295 295 296 297 300 305 309 311 313 314 317 322 324 324 325 325 323 323 323 325 328 327 327 328 327 326 326 325 325 326 326 325 325 325 323 323 323 321 319 321 323 324 325 327 329 332 331 330 329 327 327
293 293 293 293 293 293 292 293 293 293 293 293 293 293 292 292 291 291 292 292 292 292 292 292 292 292 293 294 294 294 294 295 296 296 296 295 295 296 297 300 305 309 311 312 315 319 323 323 324 325 323 323 324 323 326 326 326 327 327 327 325 324 324 325 326 325 323 322 320 321 322 321 320 321 322 321 323 325 326 329 330 329 327 326 325
292 292 292 292 292 292 293 293 293 292 292 292 292 292 292 291 291 291 291 291 292 292 292 291 291 292 292 293 294 294 294 294 295 296 296 296 295 295 296 297 301 305 308 310 312 315 322 324 323 325 324 324 326 325 326 325 325 325 325 325 324 323 324 325 324 323 322 320 318 319 320 319 320 321 322 322 323 324 325 328 330 328 325 325 325
292 292 292 292 292 293 293 293 292 292 292 292 292 292 292 291 290 290 290 291 291 291 291 291 291 291 291 292 294 295 294 294 295 295 296 296 296 295 295 296 297 301 305 308 309 311 317 323 323 323 324 325 326 326 325 324 324 324 324 324 324 324 324 324 323 322 321 320 317 317 317 316 316 316 317 319 321 323 325 329 329 326 324 325 325
292 292 292 292 292 293 293 293 292 292 292 292 292 291 291 290 290 290 290 291 291 291 290 290 290 290 290 291 293 294 294 294 294 295 295 296 296 296 296 295 295 297 300 304 308 308 310 317 323 323 323 324 325 325 324 324 323 323 324 323 322 323 323 322 321 320 320 318 316 316 315 315 316 316 318 321 322 324 326 328 327 324 324 324 323
292 292 292 292 292 293 292 292 292 292 291 291 291 291 290 290 289 289 290 290 290 290 289 289 289 289 289 290 292 293 293 294 294 295 295 295 296 297 296 296 295 295 297 300 304 306 306 309 318 324 323 323 324 324 323 323 323 323 323 321 321 322 321 319 319 319 319 316 316 315 314 316 317 318 323 324 324 325 325 325 325 323 323 322 322
292 292 291 292 292 292 292 292 291 291 291 290 290 290 289 289 289 289 289 288 288 288 288 288 288 289 289 290 291 292 293 293 294 294 294 295 295 296 296 296 295 294 295 297 300 304 305 304 309 319 323 323 323 323 322 323 323 322 322 321 320 320 319 318 318 321 321 317 315 314 315 317 318 320 324 324 323 324 324 323 323 322 321 321 320
292 291 291 292 292 292 291 291 291 291 290 290 289 289 289 288 288 288 287 287 287 287 287 287 287 288 288 289 290 291 292 293 293 294 294 295 295 295 296 297 296 295 294 296 298 300 303 303 304 311 321 323 322 322 322 322 322 322 322 321 319 318 318 318 317 320 321 317 313 313 317 320 320 321 322 322 322 323 323 323 322 320 319 319 320
291 291 291 291 291 291 291 290 290 290 290 289 289 288 288 287 287 286 286 285 285 285 286 285 286 286 286 287 289 290 291 292 292 293 294 294 295 295 296 296 296 296 295 296 297 298 301 302 302 306 315 323 322 321 322 322 321 322 322 321 320 319 319 317 315 316 317 314 312 312 314 317 320 321 321 322 322 322 323 322 321 319 318 318 319
291 291 291 291 290 290 290 290 290 290 289 288 288 288 287 287 286 285 285 284 284 284 285 284 284 284 285 286 287 288 290 291 292 293 293 294 294 295 296 296 296 297 295 295 296 297 299 301 302 303 308 318 323 321 321 322 321 321 321 320 320 320 319 318 317 315 314 314 315 315 313 314 317 320 321 322 322 322 322 322 320 319 318 318 319
291 291 290 290 290 290 290 290 290 289 288 288 288 287 286 286 285 285 284 284 283 283 283 284 283 283 284 285 286 287 288 290 291 292 293 293 294 294 295 296 297 297 295 294 295 296 298 300 301 303 304 310 320 322 321 321 321 320 320 320 319 319 319 319 318 317 315 315 319 319 317 318 318 319 321 321 321 322 322 321 320 320 319 319 318
291 290 290 290 290 290 290 290 289 289 288 288 287 287 286 285 285 284 284 283 283 282 282 283 283 283 283 284 284 285 287 289 290 291 292 293 294 294 295 297 297 297 295 294 294 296 297 298 299 302 302 304 314 322 321 320 321 320 319 319 318 317 317 318 317 316 314 315 318 319 318 320 321 320 321 321 321 322 321 321 320 320 318 317 316
290 290 290 290 290 290 290 289 289 288 288 287 287 287 286 285 284 284 283 283 282 282 282 282 282 282 283 283 283 284 286 287 289 290 291 292 294 295 296 297 298 297 296 294 294 295 296 297 298 299 301 302 307 316 321 321 320 320 320 319 318 317 317 317 316 314 313 313 316 316 315 319 321 321 321 322 322 321 321 321 320 319 317 314 315
290 289 289 289 290 290 289 289 288 288 287 287 286 286 285 285 284 283 283 282 282 281 281 281 281 282 282 282 282 282 284 285 287 289 290 292 294 296 297 298 297 297 297 295 293 294 295 297 297 297 299 302 303 308 316 321 320 320 320 318 318 317 317 317 316 314 313 313 315 315 315 318 321 320 320 321 322 321 321 321 320 318 316 314 315
Wind_Speed
22 21 19 17 16 16 16 13 11 10 10 10 10 8 7 7 8 8 9 9 8 8 8 7 6 6 6 6 7 7 7 8 8 8 9 10 9 9 10 9 9 9 9 9 10 11 11 10 9 10 10 11 10 9 11 12 13 14 13 13 14 17 15 13 11 11 11 9 6 6 6 6 6 7 10 12 14 15 16 16 16 16 17 17 18
22 20 18 15 14 14 14 14 11 10 10 10 10 9 8 8 9 9 10 10 10 10 10 9 8 7 7 8 8 8 9 9 10 11 11 12 12 11 10 10 10 10 10 10 11 11 12 11 10 10 11 12 12 9 11 12 14 14 14 14 15 16 16 14 12 12 11 10 8 8 8 7 7 8 11 14 14 15 16 16 16 17 17 17 18
19 17 17 14 13 13 14 15 13 11 10 11 11 10 9 9 9 10 11 11 11 11 11 10 9 8 8 9 9 9 10 11 12 12 12 13 13 12 11 10 9 9 10 10 11 12 12 13 12 11 11 13 13 10 11 13 14 14 14 14 15 16 17 16 14 14 13 11 10 10 10 9 8 9 11 13 14 15 15 16 16 16 17 17 17
17 16 17 14 12 12 13 15 14 12 11 11 11 10 9 9 9 10 11 11 12 12 12 10 10 10 10 10 10 10 11 11 12 13 13 12 12 13 13 11 9 8 10 11 12 12 12 13 13 12 11 13 14 12 11 13 14 14 14 14 15 17 19 18 17 17 15 14 12 11 11 10 9 9 11 13 14 15 16 16 16 16 17 17 17
15 15 17 16 13 11 11 12 13 13 11 12 11 10 10 10 10 10 11 12 12 12 12 12 12 12 12 12 12 11 11 12 12 14 14 13 13 13 14 14 13 11 10 11 12 13 13 13 13 13 12 13 14 13 12 14 15 15 15 15 15 17 20 20 19 18 17 17 15 13 13 10 9 11 12 13 14 15 16 16 16 17 17 17 17
13 12 15 17 15 12 12 11 12 12 11 12 12 12 12 11 11 11 11 12 13 13 13 14 14 14 13 12 14 14 13 14 14 14 15 14 16 16 14 14 15 15 13 12 12 13 14 13 13 13 12 13 14 13 13 15 15 15 16 16 16 18 20 21 21 20 18 19 18 16 15 12 10 12 13 14 15 16 16 16 16 16 16 16 16
12 11 13 16 17 15 14 13 13 13 11 11 11 13 14 14 14 13 13 14 15 15 15 15 15 15 14 13 15 16 14 14 15 15 16 16 17 17 16 15 15 16 15 13 13 12 13 14 13 13 12 13 14 14 14 15 16 16 16 16 17 19 20 22 23 21 18 19 20 18 17 16 13 12 14 15 16 17 16 16 16 15 16 16 16
10 10 11 12 14 16 14 14 13 13 13 12 11 12 13 14 15 15 15 16 17 16 16 16 16 16 15 15 17 17 15 15 16 17 17 17 17 17 17 16 15 15 14 13 14 12 12 13 13 12 12 13 14 14 15 16 17 17 17 17 18 20 20 23 24 21 19 20 21 19 18 18 16 14 15 15 16 18 17 16 16 15 16 17 17
10 9 9 10 11 13 12 11 11 11 12 12 12 13 13 14 14 15 16 17 18 18 18 18 18 17 16 17 18 19 18 17 17 18 19 19 18 18 17 17 16 14 13 13 14 14 12 12 13 12 11 13 14 15 16 17 17 18 18 18 19 20 21 23 24 21 20 22 21 20 20 20 19 17 17 17 17 18 17 17 17 17 17 17 17
12 9 9 10 10 11 11 10 9 10 10 11 12 13 14 15 16 16 16 16 17 18 19 19 19 18 18 18 18 19 19 19 19 19 20 20 20 19 18 17 16 15 14 14 14 14 13 13 14 13 12 13 15 15 16 17 18 18 18 18 19 21 22 24 25 23 22 23 22 21 21 21 20 20 19 19 19 18 17 18 18 18 18 18 18
14 12 10 10 10 10 9 9 9 9 10 11 12 12 13 14 16 17 17 17 17 19 20 20 21 20 20 20 19 18 19 21 20 20 20 20 21 20 19 19 18 17 16 16 15 15 14 15 15 15 14 14 16 17 17 18 19 19 19 18 19 22 24 25 26 25 25 25 23 23 23 21 21 21 21 20 21 20 18 19 19 19 18 18 18
14 12 11 10 10 9 9 8 8 9 10 11 12 13 13 13 15 16 17 18 17 19 20 20 21 22 22 21 21 20 20 21 21 20 21 21 22 21 20 20 19 18 18 18 17 16 16 16 16 16 17 16 17 19 19 20 20 20 20 19 20 23 25 26 27 28 29 27 24 25 24 22 21 22 21 21 23 22 20 20 19 20 19 18 19
16 15 14 12 11 10 10 8 8 8 9 10 12 13 14 14 14 14 16 17 17 18 20 21 21 22 23 22 22 22 22 22 22 22 22 22 23 22 21 20 19 19 19 19 19 18 18 17 17 17 18 18 19 20 20 21 22 21 21 21 21 23 26 28 29 29 30 28 27 27 26 24 22 22 22 22 23 23 22 22 21 21 20 19 20
17 18 17 16 15 14 13 11 10 8 8 8 10 11 13 14 14 14 14 15 16 18 20 21 22 23 24 24 24 23 24 23 23 24 24 24 25 24 23 22 20 21 21 21 21 20 19 18 17 18 19 20 21 22 22 22 22 21 21 22 22 24 27 28 29 29 28 30 30 29 27 25 24 24 24 23 23 23 24 24 22 22 22 21 22
19 20 19 19 18 17 16 15 14 12 11 10 9 10 11 12 13 14 15 15 15 17 19 21 23 24 24 24 24 24 25 25 24 25 25 26 27 27 27 25 22 23 24 23 23 22 21 19 19 19 19 21 22 23 23 23 23 23 23 23 23 24 27 28 30 29 29 32 32 31 29 26 24 24 24 24 23 23 24 25 23 23 24 23 24
19 20 20 20 20 20 19 18 18 17 15 13 13 12 12 12 13 14 15 16 15 16 17 19 22 24 25 25 25 25 27 27 26 27 27 27 29 30 29 27 25 25 26 25 25 25 24 22 20 20 20 21 23 25 24 24 25 26 25 24 24 25 27 29 32 32 31 34 34 32 31 27 25 25 24 24 23 24 25 25 24 25 26 25 26
20 21 21 22 22 22 21 20 20 19 19 18 16 15 14 14 14 15 15 16 17 17 18 18 20 22 25 26 26 27 28 29 29 29 29 29 30 32 30 27 27 27 27 27 27 27 27 25 23 21 21 21 24 26 25 26 27 28 28 26 25 27 30 31 34 34 32 34 35 34 32 29 27 26 26 25 25 25 26 26 26 26 27 28 27
22 24 25 25 24 24 25 24 23 23 23 21 20 17 15 15 15 16 17 17 18 19 19 19 20 21 23 25 26 28 29 30 31 31 31 31 31 33 31 28 29 29 29 29 29 29 28 28 26 24 22 22 24 26 26 27 28 30 31 29 27 29 31 33 36 36 34 35 36 35 34 31 29 28 27 27 27 26 27 27 28 28 28 29 28
23 25 26 27 28 27 27 28 27 27 26 25 23 20 18 16 15 15 16 17 18 19 20 20 20 21 22 23 25 27 29 31 32 33 33 33 33 33 32 29 29 31 31 32 31 31 30 29 29 27 25 24 25 27 27 27 29 32 32 31 29 30 33 35 37 37 37 37 37 37 35 32 30 29 28 29 29 27 28 29 30 29 28 29 28
23 25 27 28 29 29 29 30 29 29 29 28 26 24 22 21 19 17 16 16 17 18 19 20 21 21 21 23 24 26 28 30 32 34 34 35 35 34 33 31 31 33 34 34 34 33 31 31 31 29 27 26 26 28 28 28 29 31 32 32 31 32 35 38 39 39 39 38 38 38 36 34 31 30 30 31 30 28 28 29 30 30 29 30 30
25 26 27 28 28 29 29 30 30 30 30 30 29 28 26 25 23 22 20 18 17 18 19 20 21 21 21 22 23 25 27 28 30 32 33 35 35 34 34 33 33 34 35 36 36 35 33 32 32 31 29 27 27 29 30 30 30 32 34 34 33 34 38 40 41 41 41 39 39 38 37 34 32 32 32 32 31 30 29 29 30 31 31 32 32
27 27 27 28 29 29 29 29 30 30 30 31 31 31 30 29 27 25 24 22 21 20 20 21 22 22 22 22 23 24 26 28 30 31 32 32 34 34 35 34 34 35 35 36 37 37 36 34 33 32 31 29 29 30 31 31 30 32 34 34 34 35 39 43 43 43 42 40 40 39 36 34 33 32 33 33 33 31 30 29 30 32 33 33 33
28 28 29 29 29 29 29 29 29 29 29 30 30 31 31 31 31 29 27 26 25 24 23 22 23 24 24 25 25 25 26 28 29 31 31 31 32 33 34 34 35 36 36 37 37 38 38 36 34 33 33 31 31 32 32 32 32 32 33 35 37 37 40 45 46 45 43 42 41 39 36 34 34 33 33 34 33 32 31 31 32 34 36 36 35
29 30 31 32 32 32 33 32 31 31 30 30 29 29 30 30 30 31 30 29 28 26 25 24 24 24 25 27 28 28 28 28 29 30 31 32 32 32 33 35 36 37 38 39 39 39 39 38 37 35 34 33 33 33 34 34 33 33 35 37 39 39 41 46 48 47 45 43 42 39 36 35 35 34 33 33 31 33 33 31 34 37 38 38 38
31 32 34 35 35 37 37 37 36 35 34 33 33 32 31 30 29 30 30 31 31 30 27 25 24 24 24 26 29 31 31 30 30 31 31 33 34 33 33 34 36 38 38 39 40 40 39 39 38 37 36 36 35 35 35 36 35 35 37 38 40 40 42 47 49 50 47 44 43 41 38 37 38 36 34 33 32 34 35 34 37 40 40 39 39
33 34 35 36 35 37 37 37 37 36 36 36 36 36 35 33 32 31 30 30 31 31 31 30 27 25 25 26 28 30 33 33 33 33 32 33 35 36 35 35 36 39 38 39 40 40 40 40 38 38 37 37 36 36 36 37 37 37 39 40 40 41 43 48 51 51 49 46 45 42 40 41 40 38 36 34 34 35 36 37 39 41 41 41 40
34 34 35 36 35 37 37 36 37 37 37 38 38 39 38 37 36 35 33 32 31 31 31 31 31 29 28 27 28 29 31 34 35 35 34 34 35 37 37 38 38 40 41 40 40 40 41 40 40 39 37 37 36 36 36 37 39 39 40 41 42 42 44 50 53 52 50 48 45 41 41 43 40 38 37 35 36 36 36 38 40 42 43 43 42
34 35 35 37 36 37 38 38 38 39 39 40 40 41 40 38 39 38 37 35 34 33 32 30 30 31 31 29 29 31 31 32 34 35 36 37 37 37 38 40 40 40 42 41 40 41 42 41 40 40 37 37 37 37 36 35 38 39 40 42 43 45 46 51 53 50 49 47 42 41 41 42 41 39 36 36 37 36 36 39 42 45 45 45 44
35 36 36 36 36 37 38 39 39 39 39 40 41 41 40 40 41 41 40 39 36 35 35 33 30 28 29 30 29 31 33 33 33 34 35 37 38 38 38 39 42 43 43 43 42 41 43 43 41 40 39 38 38 38 36 35 37 38 41 42 42 46 48 51 54 50 49 46 42 43 43 42 41 40 37 35 35 35 36 39 42 44 45 44 43
34 35 35 35 35 37 38 37 37 38 39 39 39 39 39 40 41 42 42 42 41 40 39 37 33 29 28 28 30 32 33 34 34 34 34 36 37 38 39 38 40 45 45 45 45 43 44 44 42 41 40 39 39 39 38 37 38 38 39 39 43 48 50 53 55 53 51 48 45 44 44 42 42 40 37 34 34 34 35 39 42 42 43 42 43
33 34 34 33 34 36 36 36 37 38 39 39 38 37 37 38 39 40 42 43 44 45 44 39 36 34 31 29 30 32 35 35 35 34 34 34 35 36 38 38 39 43 46 47 46 45 45 45 44 43 42 41 40 40 39 39 40 39 36 39 46 50 52 54 55 54 52 48 45 44 42 41 41 40 39 36 35 34 35 40 42 42 45 45 46
31 32 32 32 34 36 36 36 36 37 39 39 38 38 38 38 38 40 42 44 45 46 46 43 40 39 37 34 31 31 34 37 38 38 36 35 35 35 36 38 39 40 44 48 47 46 46 45 45 45 43 41 41 39 39 40 40 39 38 41 48 51 51 54 53 52 51 47 45 44 41 39 40 39 38 37 35 35 37 40 44 46 48 47 47
30 31 31 32 35 36 36 35 35 37 38 38 38 38 39 39 39 40 42 44 45 45 46 45 44 43 42 38 35 32 32 36 39 40 40 38 36 36 36 38 39 39 40 45 47 47 46 46 46 44 42 41 41 39 38 38 40 41 42 44 48 51 52 53 53 50 47 46 47 45 42 40 40 38 36 35 34 35 37 42 45 48 49 47 47
30 32 32 33 35 35 34 33 34 35 35 36 37 38 40 40 40 41 42 44 45 45 45 44 44 45 45 42 39 36 34 35 38 41 41 41 39 37 37 38 38 39 39 41 45 48 49 47 47 45 43 43 41 39 37 38 41 43 44 46 49 50 51 50 50 49 46 46 45 44 43 42 39 37 35 34 34 34 36 43 50 51 50 49 48
31 32 31 33 35 34 32 33 33 34 35 35 36 38 39 40 41 42 43 44 44 45 45 44 45 46 46 46 44 41 37 37 38 40 41 41 40 39 38 37 37 36 37 39 41 47 51 50 50 49 45 44 41 39 38 38 42 45 45 47 48 47 47 48 46 46 47 46 43 42 42 41 38 36 35 34 33 33 36 42 50 54 53 51 49
30 30 30 33 34 32 32 33 34 35 37 37 36 37 39 41 43 44 45 44 44 44 45 45 46 46 46 46 47 45 42 41 40 40 41 40 39 39 39 37 36 35 34 38 41 46 50 53 53 51 47 45 43 41 39 40 44 45 43 43 44 44 44 45 45 43 44 45 41 39 39 38 37 35 34 33 31 32 38 43 44 49 52 50 47
27 28 30 33 33 32 32 33 34 36 39 40 39 39 41 44 47 47 46 45 44 45 45 46 47 47 47 47 48 47 45 44 43 42 42 41 38 39 39 38 36 35 34 36 42 47 49 51 52 50 49 47 44 44 42 40 45 46 43 42 43 43 45 46 46 42 41 43 41 36 35 36 36 34 33 32 31 30 37 45 43 43 47 46 45
26 27 29 32 32 32 33 34 36 38 40 41 41 41 43 48 49 48 47 46 46 45 46 48 49 48 49 49 47 47 47 46 45 44 44 42 39 37 39 38 37 36 36 36 39 47 51 50 52 50 50 50 47 46 45 42 45 47 44 43 44 45 46 48 48 42 39 40 42 40 35 36 37 36 36 35 33 30 32 42 43 40 43 45 44
26 26 29 31 31 32 33 35 37 38 40 40 41 42 46 51 51 50 50 49 47 47 48 49 50 49 48 49 47 46 47 47 46 45 45 45 41 38 38 37 37 37 38 38 37 44 53 53 55 58 54 52 50 47 46 45 45 46 46 45 47 49 49 49 48 44 40 38 38 40 37 37 38 37 38 38 36 33 32 37 40 39 42 43 42
28 28 29 30 30 33 34 34 35 37 41 43 44 46 50 53 54 54 52 51 49 50 51 50 50 49 48 48 48 47 47 46 45 45 46 46 44 42 39 37 37 37 40 43 39 40 51 55 56 63 60 54 53 51 50 49 47 46 46 46 47 49 50 49 48 45 43 39 35 37 37 37 38 39 38 37 37 33 30 34 40 42 43 41 41
31 31 30 30 30 32 31 32 35 40 44 45 46 47 49 53 54 55 54 53 52 52 54 53 50 50 48 47 48 47 45 45 45 45 45 46 46 44 42 39 37 37 40 45 45 42 45 54 55 57 60 58 54 54 54 52 50 47 44 43 44 47 48 45 44 44 43 41 38 36 35 33 33 36 36 34 33 28 26 36 46 48 46 43 41
32 33 32 30 30 30 30 34 40 44 46 45 46 47 49 51 52 52 50 50 51 52 55 56 55 56 52 47 46 46 45 45 45 45 45 46 47 45 45 43 39 38 39 42 50 46 39 44 56 58 58 60 59 57 57 54 52 52 50 42 36 36 40 41 39 39 40 39 38 37 35 32 29 31 32 31 31 27 26 39 49 48 44 42 38
32 32 32 31 29 30 32 38 43 44 45 45 46 48 50 51 49 46 44 47 52 56 59 61 59 56 50 45 44 45 44 45 45 44 45 46 46 45 46 46 42 39 39 40 47 51 41 36 45 60 61 59 59 59 59 58 55 54 51 42 38 36 32 33 35 35 38 38 36 35 35 33 30 29 32 33 34 32 30 37 44 40 37 37 36
30 31 32 32 30 31 35 40 43 43 44 47 48 49 51 51 48 47 48 52 57 59 59 57 50 45 44 43 42 43 43 44 44 45 45 46 46 46 46 46 43 39 39 40 42 50 53 44 41 49 63 60 55 56 57 59 59 55 50 43 40 38 32 34 39 34 33 36 36 36 34 34 33 32 33 35 36 37 36 37 37 31 29 34 35
29 31 32 31 30 33 38 41 42 42 45 49 49 48 51 53 53 55 57 59 60 58 54 52 50 47 46 44 42 42 43 44 45 45 45 45 46 46 46 45 44 40 39 39 39 43 54 55 48 42 52 61 55 55 57 58 61 61 58 49 37 32 36 43 43 36 34 36 36 38 36 34 36 37 36 36 37 39 40 40 37 32 29 31 32
30 31 32 31 32 37 39 40 41 43 48 49 47 47 51 53 53 55 57 58 59 58 54 53 56 56 53 48 45 42 42 44 45 45 45 45 46 46 46 45 44 42 40 39 39 40 46 53 53 50 48 64 63 55 59 60 60 63 63 59 52 48 48 48 40 33 35 37 37 39 38 36 37 39 40 40 39 41 42 42 39 36 34 32 31
31 32 33 34 36 38 39 40 42 46 49 47 46 48 51 52 52 53 54 52 52 55 56 55 55 56 53 49 46 44 41 41 42 45 45 44 45 46 46 47 44 42 41 38 38 39 42 46 52 56 47 49 63 57 59 62 59 61 62 59 58 57 54 55 50 40 37 37 38 40 40 38 39 40 43 45 44 44 45 44 41 39 38 36 34
32 34 36 37 38 38 38 41 46 49 48 47 48 49 50 51 52 53 53 52 50 52 55 55 54 53 50 45 44 45 43 40 39 41 44 45 45 45 46 47 43 40 40 37 36 37 40 44 48 53 49 36 51 60 59 63 62 60 61 58 52 49 50 58 62 55 49 44 40 42 43 41 44 45 45 46 46 47 48 45 44 42 40 38 35
33 36 38 39 38 38 40 44 48 49 48 47 49 51 51 50 49 51 52 52 51 51 52 52 52 50 48 45 44 44 43 41 40 39 40 41 42 44 45 45 42 38 39 37 36 36 37 41 43 47 51 47 45 61 62 62 66 63 60 59 53 47 47 52 56 54 54 50 45 46 47 44 46 49 48 49 48 49 50 47 45 44 40 36 34
35 38 39 38 38 39 43 47 49 49 48 49 51 52 52 49 48 49 50 52 52 52 52 51 49 47 47 47 46 46 43 40 41 40 40 39 38 41 45 44 41 39 38 37 35 35 35 38 40 42 49 52 41 48 64 64 65 66 64 62 58 51 47 50 52 50 51 51 50 51 51 50 51 51 50 52 52 51 52 51 48 46 42 38 36
38 40 40 38 38 41 46 50 51 50 50 51 52 52 52 50 49 49 49 51 52 52 52 50 47 46 46 46 46 46 44 40 40 39 38 36 33 38 44 44 41 40 38 37 36 35 34 35 38 40 45 49 40 30 49 66 65 65 67 64 62 60 56 58 59 56 55 52 49 52 53 53 52 51 50 52 55 55 54 53 51 48 44 40 40
Wind_Direction
357 359 357 1 3 360 357 349 338 323 316 315 313 308 288 281 286 280 281 284 289 291 287 287 287 293 296 300 303 301 302 301 303 304 308 307 303 297 287 277 267 263 261 258 256 257 262 265 269 270 267 260 253 238 229 222 216 217 222 224 219 219 219 214 209 211 214 212 209 193 189 179 171 169 166 169 168 169 167 163 164 164 167 166 162
355 359 359 2 4 3 358 355 346 329 322 320 317 310 293 279 283 283 281 282 284 286 284 285 290 294 298 305 308 307 306 303 306 306 307 309 306 303 299 291 281 275 272 269 263 256 256 258 260 263 266 265 260 243 229 223 220 218 220 224 223 219 215 215 213 208 211 214 208 195 193 175 161 167 161 162 165 165 163 163 165 167 169 165 159
357 2 1 2 5 4 359 357 352 340 327 322 321 314 303 286 284 287 284 281 282 285 283 283 289 290 294 302 303 303 303 303 305 305 304 305 305 304 302 297 291 280 273 271 268 260 254 253 253 254 258 261 264 253 232 223 220 222 221 223 223 218 215 216 213 204 206 211 207 199 195 175 156 157 156 158 163 162 163 165 166 169 169 165 161
357 5 1 359 2 4 1 357 354 348 337 329 325 318 312 300 290 289 288 287 286 286 284 281 281 281 287 290 290 291 292 298 301 301 302 302 304 305 303 299 296 283 270 265 265 261 254 250 250 249 249 253 260 258 240 228 221 224 225 222 217 214 216 216 211 203 201 205 204 201 197 183 161 156 160 160 162 163 164 166 165 168 168 166 165
357 5 360 355 356 360 358 356 354 351 347 341 334 325 315 308 300 294 292 291 291 289 287 280 275 274 278 280 282 285 285 289 293 296 297 295 298 301 301 299 298 291 276 265 261 260 254 249 248 247 244 247 254 256 246 236 227 224 227 221 212 211 214 214 210 204 200 204 205 203 201 195 173 161 163 164 164 165 166 166 165 168 170 168 167
2 2 1 356 353 359 354 350 349 347 347 344 341 336 324 314 307 297 293 292 288 284 284 277 272 269 269 276 280 280 281 285 286 290 292 289 291 294 293 293 295 294 289 276 264 258 256 251 246 246 242 243 249 253 248 241 233 226 228 221 214 213 213 215 212 206 204 206 210 207 203 203 188 170 168 170 168 166 168 166 164 168 171 170 170
7 360 8 0 351 356 352 345 339 337 334 332 330 330 327 321 315 304 296 293 285 278 280 276 273 271 269 278 281 276 277 283 284 285 286 285 286 288 288 287 288 291 294 288 275 262 258 255 247 245 242 241 244 248 247 243 237 229 228 221 216 218 216 218 213 206 204 205 211 208 202 204 200 184 175 175 171 169 169 167 165 167 170 170 170
12 0 9 1 348 350 350 344 335 330 325 322 316 313 316 315 314 308 303 298 292 288 286 280 276 276 275 281 283 280 279 283 283 283 281 280 281 283 285 286 284 285 289 286 282 275 266 263 256 248 241 238 240 244 245 242 239 232 230 223 218 220 216 217 212 202 202 205 210 208 201 200 200 195 183 179 177 175 172 169 167 167 170 168 169
22 6 355 353 349 350 352 347 334 328 323 318 311 305 306 305 304 303 302 301 298 294 288 283 278 275 277 282 283 283 282 282 282 282 279 278 278 280 282 283 281 280 278 274 277 280 276 273 271 265 254 244 239 240 243 241 237 233 231 226 220 218 212 213 211 200 201 207 210 208 201 196 195 198 189 183 183 182 177 171 172 172 171 169 169
29 22 2 357 357 355 353 349 337 325 317 311 304 299 298 298 298 297 296 295 295 291 285 282 277 270 273 277 279 281 282 281 281 279 277 277 276 278 280 279 277 273 269 265 266 271 273 269 266 266 265 259 251 242 240 238 235 232 231 228 218 214 213 213 209 200 201 205 208 205 200 195 192 195 192 187 187 188 182 176 180 179 175 174 171
24 20 13 7 3 2 356 348 339 324 313 304 297 293 291 291 293 294 293 290 289 286 283 280 278 275 276 277 275 276 276 275 275 274 273 273 272 273 276 277 274 268 264 262 260 261 262 261 258 256 256 258 259 252 240 233 230 229 229 228 219 215 217 215 207 202 201 199 204 203 199 198 194 195 193 188 189 192 189 183 186 185 180 180 176
18 14 14 10 5 6 3 354 343 328 313 302 295 291 287 286 288 291 294 292 287 284 283 280 278 279 282 283 282 281 277 273 274 275 272 270 271 272 273 274 272 269 265 261 259 258 256 256 258 257 253 252 255 254 243 231 226 226 228 226 221 218 218 217 211 206 203 196 199 202 199 200 195 196 195 191 192 195 196 191 190 189 185 185 183
12 10 12 9 7 2 1 358 350 338 321 307 297 292 288 285 282 285 291 292 288 283 284 284 281 279 280 280 281 283 281 279 280 279 275 274 273 271 268 268 267 268 268 265 260 257 255 254 256 258 256 252 250 251 245 235 228 225 227 226 223 220 218 220 216 210 205 196 196 202 202 202 198 197 198 196 197 199 201 196 192 192 190 189 189
20 17 15 11 10 3 358 353 346 340 328 318 304 295 291 287 282 279 282 288 289 285 284 284 282 280 281 279 278 278 278 280 280 278 279 278 274 270 266 264 264 266 268 268 264 258 254 251 251 253 254 253 250 248 244 240 236 230 228 229 226 222 220 221 218 212 203 196 197 202 205 204 201 199 200 200 200 204 204 198 194 195 194 194 194
34 30 27 23 23 17 10 1 352 342 331 322 313 304 295 291 286 282 278 278 280 282 282 281 280 279 280 280 280 278 277 278 276 277 280 280 275 271 268 265 264 266 267 266 266 262 256 252 249 248 250 253 253 250 245 239 238 237 233 231 230 225 222 221 215 208 200 198 200 203 206 205 202 201 202 202 202 204 203 199 198 197 196 197 196
37 35 33 32 32 29 26 18 9 358 347 336 326 318 307 300 293 288 282 279 275 276 279 278 279 279 278 277 278 279 279 279 278 278 280 280 277 270 267 267 266 267 266 264 265 263 260 256 252 252 251 252 254 254 249 240 234 236 235 231 233 229 222 218 214 208 203 202 202 205 208 207 205 203 203 204 205 205 203 201 201 198 197 198 197
35 33 31 31 31 29 28 25 21 13 5 355 345 335 323 313 304 298 291 286 280 278 278 275 274 275 277 276 276 277 279 279 277 277 277 277 276 270 266 266 267 268 268 264 263 263 262 260 256 254 254 254 255 255 252 245 236 235 237 233 234 232 223 217 216 213 207 203 203 206 207 206 208 207 205 206 207 207 208 204 201 201 200 198 196
34 32 29 27 26 25 24 23 22 20 14 8 1 353 341 328 316 309 302 296 289 283 282 280 277 275 276 276 276 277 278 279 277 275 276 276 274 271 265 264 267 269 269 266 263 262 262 262 260 256 255 255 256 257 254 247 239 235 236 235 235 232 222 217 218 214 208 204 203 206 206 207 209 209 207 208 209 208 209 204 201 205 202 198 197
32 29 28 24 21 19 18 18 18 19 17 13 9 3 356 344 331 319 310 304 299 294 289 285 283 281 279 277 276 276 275 276 277 276 277 277 275 271 266 266 268 269 269 267 264 261 262 263 262 260 257 256 256 258 256 249 242 236 236 237 235 231 221 217 217 211 207 206 205 207 208 209 210 211 210 211 211 210 209 205 203 207 203 198 200
28 25 23 20 17 14 13 12 11 14 13 11 10 7 5 358 349 337 324 312 305 303 298 293 288 285 285 283 279 277 276 275 276 277 277 278 277 274 271 268 267 267 268 267 265 261 261 261 262 262 259 258 256 257 257 252 244 238 237 236 234 232 222 215 214 210 207 208 206 208 210 210 211 210 211 211 211 211 208 206 206 205 203 199 198
23 21 19 15 13 10 8 6 4 5 4 3 3 3 4 2 359 353 344 331 316 306 300 299 295 290 287 287 286 283 280 278 277 278 278 278 276 273 270 266 264 264 266 267 266 263 261 261 261 262 261 259 257 256 256 253 246 239 236 234 233 233 223 213 213 211 208 208 208 210 210 210 212 211 211 212 210 209 208 208 209 205 204 200 196
22 19 17 14 11 8 5 3 0 359 357 356 356 356 356 356 356 356 354 349 338 324 308 299 296 293 289 287 288 286 284 282 280 280 280 280 276 271 267 264 263 263 263 265 266 265 263 261 260 261 261 260 258 255 253 251 247 240 236 233 234 235 225 214 213 213 209 209 210 210 212 212 212 210 209 211 208 207 210 212 210 206 204 200 197
22 19 16 13 10 8 5 2 358 355 352 350 349 349 348 348 348 347 348 348 347 343 332 316 302 293 290 288 288 286 287 287 284 281 282 283 279 273 267 263 262 262 262 263 264 265 264 263 260 260 260 260 258 255 252 249 247 242 237 233 234 236 228 216 212 216 215 212 212 211 212 211 209 205 205 208 206 207 211 211 207 204 201 197 195
19 15 12 9 7 5 2 359 356 353 349 346 344 343 341 339 339 339 339 339 339 340 340 335 323 307 294 288 287 286 287 290 290 286 283 282 281 277 271 265 263 262 261 262 263 263 262 262 261 259 259 258 255 253 250 247 245 241 236 234 234 234 230 219 213 216 218 216 214 213 212 207 201 201 203 205 205 208 209 208 206 203 198 195 194
15 12 9 7 5 2 360 357 354 352 349 346 343 341 339 335 332 331 330 331 332 332 332 333 333 326 312 298 289 286 286 287 290 291 287 283 281 279 275 270 266 264 262 262 262 262 261 261 261 259 259 257 253 250 249 247 244 240 235 233 234 233 230 223 218 217 218 218 216 212 212 207 201 199 201 204 207 209 209 207 206 202 197 195 191
13 11 9 8 5 1 360 356 353 353 350 348 346 343 341 338 335 332 329 327 326 327 327 326 326 327 326 318 304 294 289 287 286 287 288 286 281 277 276 274 271 268 265 263 263 262 260 260 260 259 259 257 252 249 248 247 244 240 235 233 232 232 230 226 222 218 216 216 215 212 213 210 202 201 203 205 208 209 209 205 202 200 197 193 189
12 10 7 5 2 360 359 355 352 352 350 349 348 346 345 343 340 339 336 333 329 326 325 324 322 320 321 323 320 311 300 293 288 285 284 285 284 278 274 272 272 269 266 264 263 261 259 258 259 259 257 254 252 249 249 247 242 238 236 235 234 230 228 226 221 216 214 214 212 210 211 208 202 202 205 204 206 207 206 203 199 197 196 192 190
9 8 5 3 0 358 356 354 352 350 350 349 348 347 347 345 343 342 341 340 337 333 329 325 321 319 316 316 319 319 313 304 296 291 287 283 284 284 278 270 270 270 267 263 261 260 259 257 257 257 253 251 252 250 248 244 238 236 237 237 236 232 228 225 220 214 213 212 208 207 206 204 203 204 204 203 205 205 203 201 200 196 193 190 188
7 5 3 1 358 354 353 352 351 350 349 348 348 348 347 346 344 343 342 341 339 336 333 330 326 319 314 311 313 316 315 313 306 300 295 288 284 285 285 277 271 269 267 263 260 260 259 257 256 254 249 249 250 249 247 242 236 236 237 238 239 236 230 227 222 213 211 211 207 206 205 205 205 204 202 202 205 204 202 202 201 197 193 189 186
5 3 1 359 355 352 351 350 350 350 349 348 346 346 346 345 344 343 342 341 339 336 334 333 331 324 315 309 309 311 311 312 310 307 302 297 290 285 285 284 276 268 263 262 260 258 259 257 254 251 246 247 247 246 246 243 239 237 238 240 238 232 226 224 220 211 209 209 206 205 206 206 205 203 200 200 203 205 204 201 199 196 192 189 185
3 1 0 357 354 351 351 352 351 349 348 347 346 345 345 344 342 341 339 338 336 334 334 333 330 326 321 313 308 307 307 307 306 305 303 299 295 289 283 282 280 272 264 262 260 257 258 257 253 249 247 246 245 244 245 244 240 237 236 236 232 222 216 216 213 208 207 205 203 203 203 203 201 201 198 197 203 207 205 199 197 194 190 188 184
1 360 359 356 353 352 352 353 351 349 347 346 345 344 342 341 340 339 337 335 332 330 330 329 326 325 324 320 312 306 304 303 302 300 299 298 296 292 286 281 280 278 268 262 260 257 256 256 252 248 246 245 243 242 242 241 238 236 234 232 226 218 213 211 208 208 206 202 203 204 203 200 198 199 199 198 201 207 206 200 197 192 186 186 183
360 359 358 355 353 351 352 351 349 347 345 345 344 341 338 338 337 336 334 331 329 326 325 324 323 322 323 321 316 310 304 302 302 299 297 297 295 293 290 285 281 281 275 265 258 256 255 254 248 244 243 240 240 239 238 237 235 235 234 232 225 217 212 208 208 210 208 203 203 204 203 201 198 199 200 200 202 206 206 200 195 190 184 185 183
359 358 357 355 352 352 350 347 346 345 345 344 341 338 337 336 334 332 331 329 326 323 322 321 319 319 320 319 317 313 307 303 302 301 299 296 294 292 290 289 286 281 279 272 260 255 254 250 243 240 237 235 235 235 232 229 230 229 228 227 221 213 208 207 208 210 210 205 202 202 201 199 198 198 199 201 203 205 206 200 194 190 185 184 183
359 358 356 353 351 352 349 343 343 344 345 343 340 338 336 334 333 331 328 327 325 322 320 318 316 316 315 315 316 314 310 306 303 303 302 298 295 291 288 290 290 283 280 281 271 260 255 248 241 235 231 230 230 230 228 226 227 222 216 217 214 207 204 206 208 209 208 203 200 200 197 196 197 197 198 200 203 206 205 200 192 186 184 184 182
359 357 352 350 352 351 347 341 339 340 341 341 340 339 336 333 330 328 326 325 324 322 319 316 314 313 311 311 313 314 312 309 307 305 304 302 298 292 288 288 290 287 283 285 279 264 253 245 238 231 227 225 223 224 224 224 224 218 211 210 211 207 202 202 203 201 199 198 196 195 194 195 195 195 200 199 203 206 200 199 193 183 183 185 182
358 354 349 349 351 349 346 343 342 340 340 341 340 338 334 330 328 326 325 323 322 320 319 316 313 310 307 306 308 310 310 309 308 307 305 304 302 296 291 287 289 289 284 283 279 265 250 239 232 227 225 224 221 220 220 220 219 214 210 209 209 208 203 201 200 195 191 194 196 196 195 196 196 198 202 200 204 207 199 198 195 186 183 183 181
358 352 348 347 348 347 345 346 345 342 341 340 338 335 331 330 329 327 324 321 320 319 318 316 313 309 305 303 304 306 306 305 306 307 306 305 304 300 295 289 288 288 282 281 283 268 251 239 232 227 224 223 221 218 215 214 214 213 210 209 208 206 204 203 204 200 192 192 196 198 197 198 199 202 206 205 206 211 205 197 196 192 184 178 176
359 350 346 345 345 344 344 345 344 342 341 337 333 329 329 330 330 327 324 321 319 317 316 315 314 310 306 304 302 302 303 302 302 303 305 305 305 303 300 295 288 286 278 278 288 274 254 242 234 228 224 221 221 219 212 207 208 211 209 208 207 206 206 206 207 208 201 195 196 197 197 198 199 201 205 208 209 214 215 208 206 198 182 174 174
357 352 348 347 345 343 343 343 340 339 337 333 329 326 327 330 329 327 324 320 318 315 314 314 313 311 308 305 301 300 300 299 299 300 301 302 304 303 302 301 293 285 275 271 285 284 259 242 229 223 219 216 216 214 208 204 204 206 205 205 206 206 207 208 208 211 207 201 199 199 200 200 200 202 204 207 210 217 223 220 211 194 179 176 175
355 354 351 348 347 344 340 338 335 334 334 331 328 326 327 329 328 325 322 319 316 313 313 313 313 311 308 305 301 298 297 297 296 296 297 298 301 302 301 303 299 290 279 267 273 285 269 246 230 220 218 212 209 207 203 200 197 194 194 195 199 203 205 206 206 207 207 205 204 204 202 201 203 204 205 208 211 217 221 212 199 184 176 176 174
353 354 352 350 347 342 336 334 333 332 333 332 330 327 326 326 325 323 321 317 314 312 312 310 309 308 305 302 300 297 294 294 294 293 293 295 298 299 299 302 302 295 288 275 267 274 281 259 233 218 215 212 208 205 201 196 191 189 189 183 182 189 196 199 201 202 203 203 204 208 205 199 198 198 200 202 201 201 201 192 180 170 168 171 170
351 352 352 351 346 340 335 332 330 330 332 332 330 327 324 324 324 323 320 314 310 309 308 307 308 309 305 299 297 296 293 291 291 290 291 293 294 296 298 300 301 300 295 287 273 265 275 280 245 218 208 207 206 203 201 198 192 188 185 180 178 176 178 188 194 200 204 202 201 203 202 196 193 194 194 192 188 185 180 177 170 163 165 170 172
351 351 351 350 343 336 332 329 327 327 329 330 329 325 323 323 323 319 315 311 309 310 310 311 314 314 309 304 299 296 293 291 290 289 289 290 291 292 295 297 298 302 299 293 285 269 265 279 275 234 207 200 201 201 203 202 196 189 183 181 184 179 176 185 188 190 199 200 197 196 195 195 195 194 194 191 188 182 178 178 176 172 174 174 174
351 350 349 346 338 331 328 327 326 325 325 327 328 325 323 323 322 320 319 319 318 319 318 316 314 311 308 306 303 299 294 291 288 288 288 287 289 289 291 294 294 299 303 296 291 281 268 269 280 263 219 204 202 199 201 202 199 197 193 185 180 181 187 190 187 187 192 195 195 193 193 197 198 196 195 195 191 184 180 180 181 186 189 182 177
350 349 345 340 332 327 327 328 326 324 325 326 327 325 324 324 323 323 323 323 321 320 317 314 311 309 306 301 297 298 297 293 288 285 287 286 287 288 287 290 292 295 301 299 292 287 278 268 271 277 247 214 206 200 197 198 199 200 199 194 190 191 190 184 181 185 191 195 196 195 196 198 200 198 194 194 192 187 182 179 182 190 195 191 187
348 345 340 335 330 328 329 329 327 326 326 326 326 326 326 326 325 324 323 322 318 316 314 312 310 309 310 305 296 292 294 296 292 286 285 285 286 286 285 286 289 292 296 299 296 286 280 273 267 276 271 221 203 200 196 195 197 198 199 198 195 194 191 185 183 181 183 192 197 198 200 201 203 202 196 192 190 188 184 181 182 185 188 189 187
344 340 336 333 330 330 330 328 327 327 327 326 326 327 328 326 325 324 323 322 318 314 314 312 309 308 310 310 302 293 289 291 294 292 288 285 283 283 284 284 284 289 293 295 299 291 280 278 269 269 280 255 213 205 200 195 196 197 197 197 196 194 194 193 191 186 181 183 188 193 197 201 204 204 199 194 190 187 185 182 183 181 181 183 183
341 337 334 332 330 330 328 328 328 327 326 325 326 327 328 325 324 323 322 322 319 315 314 312 309 308 307 306 303 298 293 290 291 293 293 290 285 282 281 281 280 285 292 293 298 296 282 279 276 267 272 275 240 211 204 200 198 196 195 196 197 195 194 194 193 190 182 179 181 188 191 193 199 203 200 195 191 188 186 183 182 180 179 181 183
338 335 334 332 330 328 327 328 328 327 326 326 326 328 329 326 324 324 323 322 321 318 317 315 310 307 306 306 305 301 296 294 291 291 294 295 291 285 279 275 279 284 288 292 296 297 289 279 281 276 268 275 267 223 207 204 202 199 196 195 195 193 191 189 192 192 185 183 184 187 188 188 192 196 194 193 192 189 187 184 181 181 183 184 187
336 335 333 331 328 327 327 328 328 327 326 326 327 328 329 327 325 324 323 322 322 320 318 316 312 308 306 306 307 304 298 293 292 294 297 297 295 289 278 272 278 283 285 291 295 294 293 285 282 284 274 270 280 261 216 205 203 201 198 197 195 195 193 191 193 192 187 186 184 183 187 188 189 190 187 189 192 189 187 185 184 185 186 187 190